sat.trackr.live / text

‹ back to catalog

KUIPER-00109

NORAD 65147 · 2025-171R

PAYLOAD ACTIVE UNKNOWN

§ Identity

Operator
Country
US
Launch date
2025-08-11
Launch site
AFETR
Launch vehicle
Mass (kg)
RCS (m²)

External: N2YO · Heavens-Above · Gunter

§ Orbital elements

Epoch: 2026-05-25T01:21:09.471168Z

Period
97.30 min
Inclination
51.9007°
Eccentricity
0.0000400
Mean motion
14.79930668 rev/d
Perigee alt
629.3 km
Apogee alt
629.8 km
Semi-major
7,007.7 km
B*
2.5184e-4
RAAN
177.8730°
Arg perigee
59.8255°
Mean anomaly
300.2747°
Rev number
4,423

§ Raw data

KUIPER-001091 65147U 25171R   26145.05635962  .00001699  00000+0  25184-3 0  99902 65147  51.9007 177.8730 0000400  59.8255 300.2747 14.79930668 44237

JSON: /api/v1/satellites/65147 · /tle

For live sub-satellite position, see the globe view (requires WebGL).

§ Visibility from observer

Set your observer location to see the next 7 days of passes ≥ 10°. The values pass through the URL so the page stays shareable.

No JS? Fill the form by hand. The geolocation button needs JavaScript.